Salem, IL

9:57 PM CST on December 15, 2017 (GMT -0600)
Salem-Leckrone

Weather History for KSLO - August, 2013

Change the Weather History Date:

Sunday, August 25, 2013

  Actual Average Record
Temperature  
Mean Temperature 74 °F -  
Max Temperature 89 °F 87 °F 99 °F (1983)
Min Temperature 60 °F 63 °F 48 °F (1958)
Cooling Degree Days 10    
Growing Degree Days 24 (Base 50)    
Moisture  
Dew Point 64 °F    
Average Humidity 72    
Maximum Humidity 100    
Minimum Humidity 38    
Precipitation  
Precipitation 0.00 in - - ()
Sea Level Pressure  
Sea Level Pressure 30.24 in    
Wind  
Wind Speed 1 mph (SSE)    
Max Wind Speed 7 mph    
Max Gust Speed -    
Visibility 8 miles    
Events      
Averages and records for this station are not official NWS values.
T = Trace of Precipitation, MM = Missing Value Source: NWS Daily Summary

Daily Weather History Graph

Daily Weather History Graph

Search for Another Location

Airport or City:

Trip Planner

Search our weather history database for the weather conditions in past years. The results will help you decide how hot, cold, wet, or windy it might be!

Date:

Astronomy

Aug. 25, 2013 Rise Set
Actual Time 6:19 AM CDT 7:35 PM CDT
Civil Twilight 5:51 AM CDT 8:03 PM CDT
Nautical Twilight 5:18 AM CDT 8:36 PM CDT
Astronomical Twilight 4:43 AM CDT 9:10 PM CDT
Moon 10:11 PM CDT (8/25) 11:16 AM CDT (8/25)
Length of Visible Light 14h 12m
Length of Day
13h 16m
Waning Gibbous, 75% of the Moon is Illuminated
Aug 25
Waning Gibbous
Aug 28
Last Quarter
Sep 5
New
Sep 12
First Quarter
Sep 19
Full

Hourly Weather History & Observations

Time (CDT) Temp. Heat Index Dew Point Humidity Pressure Visibility Wind Dir Wind Speed Gust Speed Precip Events Conditions
12:15 AM 65.1 °F - 65.1 °F 100% 30.23 in 7.0 mi Calm Calm - N/A   Clear
12:35 AM 64.2 °F - 64.2 °F 100% 30.23 in 7.0 mi Calm Calm - N/A   Clear
12:55 AM 63.9 °F - 63.9 °F 100% 30.23 in 5.0 mi Calm Calm - N/A   Clear
1:15 AM 63.5 °F - 63.5 °F 100% 30.23 in 5.0 mi Calm Calm - N/A   Clear
1:35 AM 63.0 °F - 63.0 °F 100% 30.23 in 7.0 mi Calm Calm - N/A   Clear
1:55 AM 62.6 °F - 62.6 °F 100% 30.23 in 5.0 mi Calm Calm - N/A   Clear
2:15 AM 62.6 °F - 62.6 °F 100% 30.23 in 7.0 mi Calm Calm - N/A   Clear
2:35 AM 62.6 °F - 62.6 °F 100% 30.23 in 5.0 mi Calm Calm - N/A   Clear
2:55 AM 62.2 °F - 62.2 °F 100% 30.23 in 5.0 mi Calm Calm - N/A   Clear
3:15 AM 62.1 °F - 62.1 °F 100% 30.24 in 5.0 mi Calm Calm - N/A   Clear
3:35 AM 61.7 °F - 61.7 °F 100% 30.24 in 5.0 mi Calm Calm - N/A   Clear
3:55 AM 61.2 °F - 61.2 °F 100% 30.25 in 5.0 mi Calm Calm - N/A   Clear
4:15 AM 61.3 °F - 61.3 °F 100% 30.26 in 4.0 mi Calm Calm - N/A   Clear
4:35 AM 61.0 °F - 61.0 °F 100% 30.26 in 4.0 mi Calm Calm - N/A   Clear
4:55 AM 60.8 °F - 60.8 °F 100% 30.26 in 4.0 mi Calm Calm - N/A   Clear
5:15 AM 60.3 °F - 60.3 °F 100% 30.26 in 5.0 mi Calm Calm - N/A   Clear
5:35 AM 61.2 °F - 61.2 °F 100% 30.26 in 7.0 mi Calm Calm - N/A   Clear
5:55 AM 60.4 °F - 60.4 °F 100% 30.27 in 7.0 mi Calm Calm - N/A   Clear
6:15 AM 60.8 °F - 60.8 °F 100% 30.27 in 5.0 mi Calm Calm - N/A   Clear
6:35 AM 60.4 °F - 60.4 °F 100% 30.29 in 3.0 mi Calm Calm - N/A   Clear
6:55 AM 61.2 °F - 61.2 °F 100% 30.29 in 4.0 mi Calm Calm - N/A   Clear
7:15 AM 63.5 °F - 63.5 °F 100% 30.29 in 5.0 mi Calm Calm - N/A   Clear
7:35 AM 66.7 °F - 66.7 °F 100% 30.29 in 7.0 mi Calm Calm - N/A   Clear
7:55 AM 70.9 °F - 66.4 °F 86% 30.29 in 10.0 mi Calm Calm - N/A   Clear
8:15 AM 73.6 °F - 65.5 °F 76% 30.29 in 10.0 mi SE 3.5 mph - N/A   Clear
8:35 AM 75.4 °F - 64.9 °F 70% 30.28 in 10.0 mi Calm Calm - N/A   Clear
8:55 AM 77.0 °F - 64.9 °F 66% 30.28 in 10.0 mi SE 3.5 mph - N/A   Clear
9:15 AM 77.7 °F - 65.7 °F 66% 30.29 in 10.0 mi Calm Calm - N/A   Clear
9:35 AM 79.7 °F - 64.9 °F 61% 30.28 in 10.0 mi SSE 4.6 mph - N/A   Clear
9:55 AM 81.0 °F 82.6 °F 64.6 °F 57% 30.29 in 10.0 mi ESE 4.6 mph - N/A   Clear
10:15 AM 82.0 °F 83.4 °F 63.9 °F 54% 30.29 in 10.0 mi SSE 4.6 mph - N/A   Clear
10:35 AM 83.5 °F 85.3 °F 65.5 °F 54% 30.29 in 10.0 mi Calm Calm - N/A   Clear
10:55 AM 84.7 °F 86.8 °F 65.7 °F 53% 30.29 in 10.0 mi SSE 5.8 mph - N/A   Clear
11:15 AM 85.3 °F 87.4 °F 66.0 °F 52% 30.28 in 10.0 mi SSE 4.6 mph - N/A   Clear
11:35 AM 86.0 °F 87.3 °F 64.2 °F 48% 30.28 in 10.0 mi SE 5.8 mph - N/A   Clear
11:55 AM 86.2 °F 87.3 °F 64.0 °F 47% 30.27 in 10.0 mi SSE 4.6 mph - N/A   Clear
12:15 PM 86.4 °F 87.0 °F 62.4 °F 45% 30.26 in 10.0 mi SE 4.6 mph - N/A   Clear
12:35 PM 86.9 °F 88.1 °F 63.9 °F 46% 30.26 in 10.0 mi East 4.6 mph - N/A   Clear
12:55 PM 87.4 °F 88.5 °F 63.7 °F 45% 30.26 in 10.0 mi Calm Calm - N/A   Clear
1:15 PM 87.4 °F 88.5 °F 63.5 °F 45% 30.25 in 10.0 mi SSE 6.9 mph - N/A   Scattered Clouds
1:35 PM 88.2 °F 89.0 °F 63.0 °F 43% 30.25 in 10.0 mi ESE 4.6 mph - N/A   Clear
1:55 PM 88.5 °F 88.9 °F 61.7 °F 41% 30.24 in 10.0 mi Calm Calm - N/A   Clear
2:15 PM 88.5 °F 88.3 °F 60.8 °F 39% 30.24 in 10.0 mi SW 4.6 mph - N/A   Clear
2:35 PM 88.5 °F 88.3 °F 60.4 °F 39% 30.23 in 10.0 mi SSE 3.5 mph - N/A   Clear
2:55 PM 88.7 °F 88.6 °F 60.8 °F 39% 30.23 in 10.0 mi Calm Calm - N/A   Clear
3:15 PM 89.1 °F 89.0 °F 61.0 °F 39% 30.23 in 10.0 mi Calm Calm - N/A   Clear
3:35 PM 88.9 °F 88.8 °F 60.8 °F 39% 30.22 in 10.0 mi SSE 4.6 mph - N/A   Clear
3:55 PM 89.1 °F 88.8 °F 60.6 °F 38% 30.22 in 10.0 mi SSE 3.5 mph - N/A   Clear
4:15 PM 89.2 °F 89.3 °F 61.0 °F 39% 30.21 in 10.0 mi SSW 3.5 mph - N/A   Clear
4:35 PM 89.4 °F 89.2 °F 60.8 °F 38% 30.21 in 10.0 mi Calm Calm - N/A   Clear
4:55 PM 89.1 °F 88.8 °F 60.1 °F 38% 30.21 in 10.0 mi South 4.6 mph - N/A   Clear
5:15 PM 88.9 °F 89.1 °F 61.5 °F 40% 30.21 in 10.0 mi South 3.5 mph - N/A   Clear
5:35 PM 88.7 °F 88.8 °F 61.7 °F 40% 30.21 in 10.0 mi Calm Calm - N/A   Clear
5:55 PM 88.2 °F 88.1 °F 61.3 °F 40% 30.21 in 10.0 mi SSW 3.5 mph - N/A   Clear
6:15 PM 87.4 °F 87.2 °F 60.4 °F 40% 30.20 in 10.0 mi Calm Calm - N/A   Clear
6:35 PM 86.4 °F 88.1 °F 64.9 °F 49% 30.20 in 10.0 mi Calm Calm - N/A   Clear
6:55 PM 82.6 °F 87.1 °F 70.9 °F 68% 30.21 in 10.0 mi Calm Calm - N/A   Clear
7:15 PM 78.8 °F - 71.6 °F 78% 30.21 in 10.0 mi Calm Calm - N/A   Clear
7:35 PM 76.1 °F - 70.5 °F 83% 30.21 in 10.0 mi Calm Calm - N/A   Clear
7:55 PM 73.8 °F - 70.7 °F 90% 30.21 in 10.0 mi Calm Calm - N/A   Clear
8:15 PM 72.9 °F - 69.1 °F 88% 30.21 in 10.0 mi Calm Calm - N/A   Clear
8:35 PM 73.9 °F - 68.5 °F 83% 30.22 in 10.0 mi ESE 3.5 mph - N/A   Clear
8:55 PM 75.2 °F - 68.0 °F 78% 30.22 in 10.0 mi SE 3.5 mph - N/A   Clear
9:15 PM 75.2 °F - 67.6 °F 77% 30.22 in 10.0 mi SE 3.5 mph - N/A   Clear
9:35 PM 75.2 °F - 67.8 °F 78% 30.23 in 10.0 mi SE 3.5 mph - N/A   Clear
9:55 PM 73.9 °F - 68.0 °F 82% 30.23 in 10.0 mi Calm Calm - N/A   Clear
10:15 PM 73.0 °F - 67.8 °F 84% 30.23 in 10.0 mi Calm Calm - N/A   Clear
10:35 PM 75.6 °F - 67.8 °F 77% 30.23 in 10.0 mi SE 3.5 mph - N/A   Clear
10:55 PM 76.1 °F - 68.2 °F 76% 30.23 in 10.0 mi SSE 3.5 mph - N/A   Clear
11:15 PM 75.7 °F - 68.7 °F 79% 30.23 in 10.0 mi South 3.5 mph - N/A   Clear
11:35 PM 75.6 °F - 69.1 °F 80% 30.23 in 10.0 mi SSE 3.5 mph - N/A   Clear
11:55 PM 74.3 °F - 69.3 °F 84% 30.23 in 10.0 mi Calm Calm - N/A   Clear